Change the Weather History Date:

Wednesday, November 14, 2012

  Actual Average Record
Temperature  
Mean Temperature 36 °F -  
Max Temperature 46 °F - - ()
Min Temperature 26 °F - - ()
Degree Days  
Heating Degree Days 29    
Moisture  
Dew Point 30 °F    
Average Humidity 98    
Maximum Humidity 100    
Minimum Humidity 70    
Precipitation  
Precipitation 0.00 in - - ()
Sea Level Pressure  
Sea Level Pressure 30.39 in    
Wind  
Wind Speed 1 mph ()    
Max Wind Speed 7 mph    
Max Gust Speed -    
Visibility 2.6 miles    
Events Fog    
T = Trace of Precipitation, MM = Missing Value Source: Averaged Metar Reports

Daily Weather History Graph

Daily Weather History Graph

Search for Another Location

Airport or City:

Trip Planner

Search our weather history database for the weather conditions in past years. The results will help you decide how hot, cold, wet, or windy it might be!

Date:

Astronomy

Nov. 14, 2012 Rise Set
Actual Time 7:22 AM CET 4:30 PM CET
Civil Twilight 6:47 AM CET 5:05 PM CET
Nautical Twilight 6:08 AM CET 5:44 PM CET
Astronomical Twilight 5:30 AM CET 6:22 PM CET
Moon 7:57 AM CET (11/14) 4:56 PM CET (11/14)
Length of Visible Light 10h 17m
Length of Day
9h 07m
New Moon, 0% of the Moon is Illuminated
Nov 14
New Moon
Nov 20
First Quarter
Nov 28
Full
Dec 6
Last Quarter
Dec 13
New

Hourly Weather History & Observations

Time (CET) Temp. Windchill Dew Point Humidity Pressure Visibility Wind Dir Wind Speed Gust Speed Precip Events Conditions
12:54 AM 32.0 °F - 30.2 °F 93% 30.46 in - Calm Calm - N/A Fog Light Freezing Fog
12:58 AM 30.4 °F - 30.2 °F 99% 30.53 in - Calm Calm - N/A Fog Light Freezing Fog
1:21 AM 32.0 °F - 32.0 °F 100% 30.45 in 0.2 mi Calm Calm - N/A Fog Light Freezing Fog
1:26 AM 32.0 °F - 32.0 °F 100% 30.45 in - Calm Calm - N/A Fog Light Freezing Fog
1:58 AM 30.0 °F - 29.8 °F 99% 30.53 in - Calm Calm - N/A Fog Light Freezing Fog
2:17 AM 30.2 °F - 30.2 °F 100% 30.45 in 0.2 mi Calm Calm - N/A Fog Light Freezing Fog
2:58 AM 29.5 °F - 29.3 °F 99% 30.53 in 0.2 mi Calm Calm - N/A Fog Light Freezing Fog
2:59 AM 30.2 °F - 28.4 °F 93% 30.45 in - Calm Calm - N/A Fog Light Freezing Fog
3:17 AM 28.4 °F - 28.4 °F 100% 30.45 in 0.2 mi Calm Calm - N/A Fog Light Freezing Fog
3:23 AM 28.4 °F - 28.4 °F 100% 30.44 in - Calm Calm - N/A Fog Light Freezing Fog
3:32 AM 28.4 °F - 28.4 °F 100% 30.44 in 0.2 mi Calm Calm - N/A Fog Light Freezing Fog
3:58 AM 28.8 °F - 28.4 °F 99% 30.52 in 0.2 mi NW 1.2 mph - N/A Fog Light Freezing Fog
4:58 AM 29.1 °F - 28.9 °F 99% 30.52 in 0.2 mi NW 1.2 mph - N/A Fog Light Freezing Fog
5:58 AM 28.4 °F - 28.2 °F 99% 30.51 in 0.2 mi Calm Calm - N/A Fog Light Freezing Fog
6:04 AM 28.4 °F - 28.4 °F 100% 30.43 in - Calm Calm - N/A Fog Light Freezing Fog
6:09 AM 28.4 °F - 28.4 °F 100% 30.43 in 0.2 mi Calm Calm - N/A Fog Light Freezing Fog
6:34 AM 28.4 °F - 28.4 °F 100% 30.43 in 0.5 mi ENE 2.3 mph - N/A Fog Light Freezing Fog
6:47 AM 28.4 °F - 28.4 °F 100% 30.43 in 0.5 mi Variable 1.2 mph - N/A Fog Light Freezing Fog
6:48 AM 28.4 °F - 28.4 °F 100% 30.43 in 0.7 mi Calm Calm - N/A   Mist
6:51 AM 28.4 °F - 28.4 °F 100% 30.43 in 1.0 mi Calm Calm - N/A   Mist
6:52 AM 28.4 °F - 28.4 °F 100% 30.43 in 1.2 mi Calm Calm - N/A   Overcast
6:53 AM 28.4 °F - 28.4 °F 100% 30.43 in 1.5 mi ENE 1.2 mph - N/A   Overcast
6:54 AM 28.4 °F - 28.4 °F 100% 30.43 in 1.7 mi ENE 1.2 mph - N/A   Overcast
6:55 AM 28.4 °F - 28.4 °F 100% 30.43 in - Calm Calm - N/A   Overcast
6:56 AM 28.4 °F - 28.4 °F 100% 30.43 in 2.5 mi ENE 1.2 mph - N/A   Overcast
6:57 AM 28.4 °F - 28.4 °F 100% 30.43 in 3.1 mi ESE 1.2 mph - N/A   Overcast
6:58 AM 29.1 °F - 28.9 °F 99% 30.51 in 3.7 mi ESE 1.2 mph - N/A   Overcast
7:13 AM 30.2 °F - 28.4 °F 93% 30.43 in 6.2 mi ENE 1.2 mph - N/A   Overcast
7:58 AM 30.9 °F - 30.6 °F 99% 30.52 in 3.7 mi Variable 2.3 mph - N/A   Overcast
8:02 AM 32.0 °F 28.7 °F 32.0 °F 100% 30.44 in 3.1 mi NE 3.5 mph - N/A   Overcast
8:21 AM 32.0 °F 28.7 °F 32.0 °F 100% 30.44 in 3.1 mi Variable 3.5 mph - N/A   Overcast
8:58 AM 34.0 °F - 33.8 °F 99% 30.52 in 3.1 mi Variable 1.2 mph - N/A   Overcast
9:14 AM 35.6 °F - 33.8 °F 93% 30.44 in 3.7 mi Variable 1.2 mph - N/A   Overcast
9:40 AM 35.6 °F - 35.6 °F 100% 30.43 in 5.0 mi Variable 2.3 mph - N/A   Overcast
9:58 AM 36.3 °F - 36.1 °F 99% 30.50 in 5.0 mi Variable 1.2 mph - N/A   Overcast
10:04 AM 35.6 °F - 35.6 °F 100% 30.43 in 5.0 mi Variable 2.3 mph - N/A   Overcast
10:37 AM 37.4 °F 34.9 °F 37.4 °F 100% 30.42 in 5.0 mi Variable 3.5 mph - N/A   Overcast
10:58 AM 38.8 °F 35.4 °F 38.7 °F 99% 30.49 in 5.6 mi ENE 4.6 mph - N/A   Overcast
11:37 AM 39.2 °F - 39.2 °F 100% 30.40 in 6.2 mi Variable 2.3 mph - N/A   Mostly Cloudy
11:49 AM 39.2 °F 37.0 °F 39.2 °F 100% 30.40 in 6.2 mi Variable 3.5 mph - N/A   Mostly Cloudy
11:58 AM 40.1 °F 36.9 °F 39.7 °F 99% 30.46 in 6.2 mi ENE 4.6 mph - N/A   Overcast
12:08 PM 41.0 °F 39.0 °F 41.0 °F 100% 30.39 in 6.2 mi Variable 3.5 mph - N/A   Overcast
12:19 PM 41.0 °F - 41.0 °F 100% 30.39 in 6.2 mi Variable 2.3 mph - N/A   Mostly Cloudy
12:30 PM 42.8 °F - 41.0 °F 93% 30.38 in 6.2 mi Variable 2.3 mph - N/A   Scattered Clouds
12:58 PM 43.5 °F 41.9 °F 43.2 °F 99% 30.43 in 6.2 mi NE 3.5 mph - N/A   Partly Cloudy
1:58 PM 46.2 °F 45.0 °F 38.8 °F 75% 30.41 in 6.2 mi Variable 3.5 mph - N/A   Clear
2:58 PM 46.2 °F 42.7 °F 37.0 °F 70% 30.40 in 6.2 mi Variable 6.9 mph - N/A   Clear
3:58 PM 44.4 °F - 36.3 °F 73% 30.39 in 6.2 mi Variable 2.3 mph - N/A   Clear
4:58 PM 39.2 °F - 35.6 °F 87% 30.40 in 6.2 mi Calm Calm - N/A   Clear
5:58 PM 34.0 °F - 33.1 °F 96% 30.41 in 5.6 mi Calm Calm - N/A   Clear
6:58 PM 31.3 °F - 30.7 °F 98% 30.40 in 5.0 mi East 1.2 mph - N/A   Clear
7:58 PM 30.2 °F - 29.7 °F 98% 30.40 in 5.6 mi Calm Calm - N/A   Clear
8:58 PM 29.3 °F - 28.8 °F 98% 30.39 in 3.7 mi Calm Calm - N/A   Clear
9:40 PM 28.4 °F - 28.4 °F 100% 30.31 in 2.5 mi Calm Calm - N/A   Clear
9:41 PM 28.4 °F - 26.6 °F 93% 30.31 in 1.7 mi Calm Calm - N/A   Clear
9:42 PM 26.6 °F - 26.6 °F 100% 30.31 in 1.2 mi Calm Calm - N/A   Clear
9:43 PM 26.6 °F - 26.6 °F 100% 30.31 in 1.0 mi Calm Calm - N/A   Clear
9:44 PM 26.6 °F - 26.6 °F 100% 30.31 in 0.7 mi Calm Calm - N/A   Clear
9:46 PM 26.6 °F - 26.6 °F 100% 30.31 in 0.5 mi Calm Calm - N/A Fog Light Freezing Fog
9:50 PM 26.6 °F - 26.6 °F 100% 30.31 in 0.2 mi Calm Calm - N/A Fog Light Freezing Fog
9:56 PM 26.6 °F - 26.6 °F 100% 30.31 in 0.5 mi Calm Calm - N/A Fog Light Freezing Fog
9:58 PM 27.3 °F - 27.0 °F 99% 30.39 in 0.5 mi ENE 1.2 mph - N/A Fog Light Freezing Fog
10:02 PM 26.6 °F - 26.6 °F 100% 30.31 in 0.7 mi Calm Calm - N/A   Clear
10:07 PM 26.6 °F - 26.6 °F 100% 30.31 in 1.0 mi Calm Calm - N/A   Clear
10:14 PM 26.6 °F - 26.6 °F 100% 30.31 in 1.2 mi Calm Calm - N/A   Clear
10:15 PM 26.6 °F - 26.6 °F 100% 30.31 in 1.7 mi Calm Calm - N/A   Clear
10:16 PM 26.6 °F - 26.6 °F 100% 30.31 in 2.5 mi Calm Calm - N/A   Clear
10:17 PM 26.6 °F - 26.6 °F 100% 30.31 in 3.1 mi Calm Calm - N/A   Clear
10:58 PM 27.0 °F - 26.4 °F 98% 30.38 in 5.6 mi ESE 1.2 mph - N/A   Clear
11:19 PM 26.6 °F - 26.6 °F 100% 30.30 in 2.5 mi SE 2.3 mph - N/A   Clear
11:20 PM 26.6 °F - 26.6 °F 100% 30.30 in - SE 2.3 mph - N/A   Clear
11:21 PM 26.6 °F - 26.6 °F 100% 30.30 in 1.7 mi SE 2.3 mph - N/A   Clear
11:23 PM 26.6 °F - 26.6 °F 100% 30.30 in 1.2 mi SE 2.3 mph - N/A   Clear
11:24 PM 26.6 °F - 26.6 °F 100% 30.30 in 1.0 mi SE 2.3 mph - N/A   Clear
11:25 PM 26.6 °F - 24.8 °F 93% 30.30 in 0.7 mi SE 2.3 mph - N/A   Clear
11:28 PM 26.6 °F 22.6 °F 24.8 °F 93% 30.30 in 0.5 mi SE 3.5 mph - N/A Fog Light Freezing Fog
11:39 PM 26.6 °F - 26.6 °F 100% 30.30 in 0.7 mi ESE 2.3 mph - N/A   Clear
11:44 PM 26.6 °F - 26.6 °F 100% 30.30 in 1.0 mi ESE 2.3 mph - N/A   Clear
11:47 PM 26.6 °F - 26.6 °F 100% 30.30 in 1.2 mi Variable 2.3 mph - N/A   Clear
11:48 PM 26.6 °F - 26.6 °F 100% 30.30 in 1.2 mi Variable 1.2 mph - N/A   Clear
11:49 PM 26.6 °F - 26.6 °F 100% 30.30 in 1.5 mi East 1.2 mph - N/A   Clear
11:50 PM 26.6 °F - 26.6 °F 100% 30.30 in 1.7 mi Variable 1.2 mph - N/A   Clear
11:51 PM 26.6 °F - 26.6 °F 100% 30.30 in - Variable 1.2 mph - N/A   Clear
11:54 PM 26.6 °F - 26.6 °F 100% 30.30 in 2.5 mi Calm Calm - N/A   Clear
11:56 PM 26.6 °F - 26.6 °F 100% 30.30 in - ENE 1.2 mph - N/A   Clear
11:58 PM 27.1 °F - 26.6 °F 98% 30.36 in 1.7 mi East 2.3 mph - N/A   Clear